Погода в Алате

Узбекистан     39°24′48″N   63°48′08″E
темп.,
°C
ветер,
м/с
пор.,
м/с
влажн.,
%
обл.,
%
осадки,
мм/ч
давл.,
гПа
погр.,
м
14 августа, вс
вс1423:00+31ссв816180 0.0 1005440
02:00+29ссв715220 0.0 1004385
05:00+27ссв816260 0.0 1004356
08:00+28ссв913250 0.0 1005480
11:00+34ссв910160 0.0 10051470
14:00+37ссв88120 0.0 10032456
17:00+38ссв910100 0.0 10012801
20:00+34с711140 0.0 1002240
15 августа, пн
пн1523:00+31с512180 0.0 1002209
02:00+28ссз511210 0.0 1002174
05:00+27с59230 0.0 1002130
08:00+29с57210 0.0 1004248
11:00+36с56140 0.0 10041020
14:00+39с66110 0.0 10033025
17:00+39с77110 0.0 10023189
20:00+35с59140 0.0 1002147
16 августа, вт
вт1623:00+32ссз510150 0.0 1003163
02:00+30ссв614180 0.0 1003315
05:00+28ссв713240 0.0 1004270
08:00+29ссв911230 0.0 1005406
11:00+35ссв1010160 0.0 10051285
14:00+39ссв109120 0.0 10042706
17:00+39с98120 0.0 10033268
20:00+34с814120 0.0 1004403
17 августа, ср
ср1723:00+31с916140 0.0 1006556
02:00+28с815150 0.0 1006455
05:00+25с712190 0.0 1006308
08:00+27с811220 0.0 1007428
11:00+34с89160 0.0 10061019
14:00+39ссв88120 0.0 10042539
17:00+39ссв99100 0.0 10033096
20:00+34ссв713110 0.0 1004302
18 августа, чт
чт1823:00+31св715140 0.0 1005346
02:00+28ссв815160 0.0 1005337
05:00+26ссв817150 0.0 1005384
08:00+27ссв1015180 0.0 1007590
11:00+32ссв1112110 0.0 10071382
14:00+36ссв101180 0.0 10052047
17:00+36ссв101180 0.0 10042184
20:00+32ссв713100 0.0 1004319